| Date | Time | Temp. (oF) | Dew Point (oF) | Rel. Hum. (%) | Press. (in.) | Wind Dir. | Wind Speed (mph) | Hourly Rainfall (in.) |
|
|---|---|---|---|---|---|---|---|---|---|
| 1 | 12/26 | 00:00 | 38 | 37 | 100 | 30.05 | E | 16 | 0.00 |
| 2 | 12/25 | 23:00 | 38 | 37 | 100 | 30.07 | ENE | 11 | 0.01 |
| 3 | 12/25 | 22:00 | 38 | 37 | 100 | 30.09 | NW | 11 | 0.03 |
| 4 | 12/25 | 21:00 | 38 | 37 | 100 | 30.13 | E | 4 | 0.04 |
| 5 | 12/25 | 20:00 | 37 | 36 | 100 | 30.13 | ESE | 7 | 0.03 |
| 6 | 12/25 | 19:00 | 37 | 36 | 100 | 30.14 | E | 7 | 0.00 |
| 7 | 12/25 | 18:00 | 37 | 36 | 100 | 30.14 | WSW | 10 | 0.00 |
| 8 | 12/25 | 17:00 | 37 | 36 | 100 | 30.15 | E | 9 | 0.00 |
| 9 | 12/25 | 16:00 | 38 | 37 | 99 | 30.19 | E | 4 | 0.00 |
| 10 | 12/25 | 15:00 | 37 | 36 | 99 | 30.17 | ESE | 4 | 0.00 |
| 11 | 12/25 | 14:00 | 37 | 36 | 99 | 30.18 | E | 6 | 0.00 |
| 12 | 12/25 | 13:00 | 36 | 35 | 98 | 30.22 | ESE | 7 | 0.00 |
| 13 | 12/25 | 12:00 | 35 | 33 | 96 | 30.22 | ENE | 7 | 0.00 |
| 14 | 12/25 | 11:00 | 33 | 30 | 92 | 30.31 | ENE | 4 | 0.00 |
| 15 | 12/25 | 10:00 | 31 | 28 | 92 | 30.30 | NE | 3 | 0.00 |
| 16 | 12/25 | 09:00 | 27 | 25 | 93 | 30.33 | E | 0 | 0.00 |
| 17 | 12/25 | 08:00 | 26 | 24 | 93 | 30.36 | N | 0 | 0.00 |
| 18 | 12/25 | 07:00 | 24 | 22 | 95 | 30.35 | NW | 0 | 0.00 |
| 19 | 12/25 | 06:00 | 23 | 22 | 97 | 30.33 | E | 0 | 0.00 |
| 20 | 12/25 | 05:00 | 22 | 21 | 98 | 30.36 | ENE | 0 | 0.00 |
| 21 | 12/25 | 04:00 | 21 | 20 | 97 | 30.37 | S | 1 | 0.00 |
| 22 | 12/25 | 03:00 | 21 | 20 | 98 | 30.40 | NW | 3 | 0.00 |
| 23 | 12/25 | 02:00 | 18 | 17 | 98 | 30.41 | SE | 0 | 0.00 |
| 24 | 12/25 | 01:00 | 17 | 16 | 96 | 30.39 | W | 1 | 0.00 |